Andalusia, AL

3:45 PM CDT on April 25, 2017 (GMT -0500)
Andalusia

Weather History for K79J - February, 2014

Change the Weather History Date:

Thursday, February 27, 2014

  Actual Average (KCEW) Record (KCEW)
Temperature  
Mean Temperature 46 °F -  
Max Temperature 57 °F 67 °F 83 °F (1981)
Min Temperature 34 °F 40 °F 21 °F (2002)
Degree Days  
Heating Degree Days 20    
Moisture  
Dew Point 20 °F    
Average Humidity 41    
Maximum Humidity 67    
Minimum Humidity 18    
Precipitation  
Precipitation 0.00 in - - ()
Sea Level Pressure  
Sea Level Pressure 30.02 in    
Wind  
Wind Speed 8 mph (North)    
Max Wind Speed 13 mph    
Max Gust Speed 18 mph    
Visibility 10 miles    
Events      
Averages and records for this station are not official NWS values.
T = Trace of Precipitation, MM = Missing Value Source: NWS Daily Summary

Daily Weather History Graph

Daily Weather History Graph

Search for Another Location

Airport or City:

Trip Planner

Search our weather history database for the weather conditions in past years. The results will help you decide how hot, cold, wet, or windy it might be!

Date:

Astronomy

Feb. 27, 2014 Rise Set
Actual Time 6:14 AM CST 5:42 PM CST
Civil Twilight 5:50 AM CST 6:06 PM CST
Nautical Twilight 5:22 AM CST 6:34 PM CST
Astronomical Twilight 4:53 AM CST 7:03 PM CST
Moon 4:41 AM CST (2/27) 4:10 PM CST (2/27)
Length of Visible Light 12h 16m
Length of Day
11h 27m
Waning Crescent, 4% of the Moon is Illuminated
Feb 27
Waning Crescent
Mar 1
New
Mar 8
First Quarter
Mar 16
Full
Mar 23
Last Quarter

Hourly Weather History & Observations

Time (CST) Temp. Windchill Dew Point Humidity Pressure Visibility Wind Dir Wind Speed Gust Speed Precip Events Conditions
12:56 AM 41.0 °F 35.2 °F 28.9 °F 62% 30.00 in 10.0 mi North 9.2 mph - N/A   Clear
1:56 AM 39.9 °F 33.4 °F 28.0 °F 63% 29.99 in 10.0 mi North 10.4 mph - N/A   Clear
2:56 AM 39.0 °F 32.3 °F 26.1 °F 60% 29.99 in 10.0 mi North 10.4 mph - N/A   Clear
3:56 AM 37.9 °F 30.9 °F 24.1 °F 57% 30.01 in 10.0 mi North 10.4 mph - N/A   Clear
4:56 AM 36.0 °F 29.0 °F 21.0 °F 55% 30.02 in 10.0 mi North 9.2 mph - N/A   Clear
5:56 AM 34.0 °F 27.2 °F 19.9 °F 56% 30.04 in 10.0 mi North 8.1 mph - N/A   Clear
6:56 AM 34.0 °F 28.8 °F 18.0 °F 52% 30.05 in 10.0 mi North 5.8 mph - N/A   Clear
7:56 AM 37.0 °F 28.9 °F 15.1 °F 41% 30.07 in 10.0 mi NNE 12.7 mph - N/A   Clear
8:56 AM 41.0 °F 34.3 °F 14.0 °F 33% 30.07 in 10.0 mi NNE 11.5 mph 18.4 mph N/A   Clear
9:56 AM 45.0 °F 40.1 °F 14.0 °F 29% 30.07 in 10.0 mi NNE 9.2 mph - N/A   Clear
10:56 AM 48.0 °F - 12.9 °F 24% 30.06 in 10.0 mi NNE 9.2 mph - N/A   Clear
11:56 AM 52.0 °F - 14.0 °F 22% 30.04 in 10.0 mi NNE 10.4 mph - N/A   Clear
12:56 PM 54.0 °F - 12.9 °F 20% 30.01 in 10.0 mi North 8.1 mph 16.1 mph N/A   Clear
1:56 PM 55.9 °F - 17.1 °F 22% 29.99 in 10.0 mi NE 11.5 mph - N/A   Clear
2:56 PM 57.0 °F - 14.0 °F 18% 29.99 in 10.0 mi North 8.1 mph - N/A   Clear
3:56 PM 57.0 °F - 16.0 °F 20% 29.97 in 10.0 mi NNW 9.2 mph - N/A   Clear
4:56 PM 55.9 °F - 15.1 °F 20% 29.97 in 10.0 mi North 8.1 mph - N/A   Clear
5:56 PM 50.0 °F - 19.9 °F 31% 29.99 in 10.0 mi North 4.6 mph - N/A   Clear
6:56 PM 46.0 °F 44.8 °F 21.9 °F 39% 30.00 in 10.0 mi North 3.5 mph - N/A   Clear
7:56 PM 42.1 °F - 24.1 °F 49% 30.03 in 10.0 mi Calm Calm - N/A   Clear
8:56 PM 39.9 °F 37.8 °F 24.1 °F 53% 30.04 in 10.0 mi North 3.5 mph - N/A   Clear
9:56 PM 39.0 °F 36.8 °F 23.0 °F 53% 30.04 in 10.0 mi North 3.5 mph - N/A   Clear
10:56 PM 39.0 °F - 21.9 °F 50% 30.04 in 10.0 mi Calm Calm - N/A   Clear
11:56 PM 35.1 °F - 25.0 °F 67% 30.05 in 10.0 mi Calm Calm - N/A   Clear